Regional Weather Roundup
Issued by NWS

Home | Current Version | Previous Version | Graphics & Text | Print | Product List | Glossary On
Versions: 1 2 3 4 5 6 7 8 9 10 11 12 13 14 15 16 17 18 19 20 21 22 23 24 25 26 27 28 29 30 31 32 33 34 35 36 37 38 39 40 41 42 43 44 45 46 47 48 49 50
000
ASUS43 KDMX 211207
RWRIA

WEATHER ROUNDUP FOR IOWA
NATIONAL WEATHER SERVICE DES MOINES IA
700 AM CDT SUN SEP 21 2014

NOTE: "FAIR" INDICATES FEW OR NO CLOUDS BELOW 12,000 FEET WITH NO
SIGNIFICANT WEATHER AND/OR OBSTRUCTIONS TO VISIBILITY.

* - THESE STATIONS ARE NOT NWS STATIONS...THUS NOT UNDER NWS
QUALITY CONTROL.  THEY ALSO DO NOT REPORT WEATHER SUCH
AS PRECIPITATION OR FOG.

IAZ001>003-012>014-020>022-031>034-043>046-211300-
   NORTHWEST IOWA

CITY           SKY/WX    TMP DP  RH WIND       PRES   REMARKS
CARROLL *      CLEAR     50  46  87 NW9       30.09R
CHEROKEE *     CLEAR     52  46  82 N6        30.12R
DENISON *      CLEAR     52  48  87 NW6       30.10R
LE MARS *      CLEAR     52  46  82 NW8       30.15R
ORANGE CITY *  CLEAR     54  45  71 NW9       30.13R
SHELDON *      CLEAR     48  46  93 NW7       30.12R
SIOUX CITY     CLEAR     51  46  83 NW6       30.15R
6HR MIN TEMP:  50; 6HR MAX TEMP:  59;

SPENCER        CLEAR     49  44  83 W9        30.10R
6HR MIN TEMP:  47; 6HR MAX TEMP:  55;

STORM LAKE *   CLEAR     50  48  93 W7        30.09R
$$

IAZ055>058-069>071-079>083-090>094-211300-
   SOUTHWEST IOWA

CITY           SKY/WX    TMP DP  RH WIND       PRES   REMARKS
ATLANTIC *     CLEAR     54  48  82 NW7       30.10R
AUDUBON *      CLEAR     52  45  76 NW6       30.10R
COUNCIL BLFS * CLEAR     55  50  82 W6        30.13R
CRESTON *      CLEAR     54  50  87 W8        30.10R
HARLAN  *      CLEAR     54  50  87 NW10      30.15R
LAMONI         CLEAR     53  49  86 NW10      30.07R
6HR MIN TEMP:  52; 6HR MAX TEMP:  64;

RED OAK *      PTCLDY    52  52 100 W10       30.13R
SHENANDOAH *     N/A     55  54  94 NW8G14    30.14R
$$

IAZ047>049-059>061-072>074-084-211300-
   CENTRAL IOWA

CITY           SKY/WX    TMP DP  RH WIND       PRES   REMARKS
AMES           CLEAR     56  46  69 NW14      30.03R
6HR MIN TEMP:  54; 6HR MAX TEMP:  58;

ANKENY *       CLEAR     55  50  82 W9        30.04R
CHARITON *     CLEAR     55  50  82 W12       30.05R
DES MOINES     CLEAR     56  47  71 NW9       30.04R
6HR MIN TEMP:  56; 6HR MAX TEMP:  62;

GRINNELL*      CLEAR     53  48  84 W8        30.01R
KNOXVILLE *    CLEAR     54  48  82 W10       30.02R
MARSHALLTOWN   CLEAR     52  48  86 W10       30.00R
6HR MIN TEMP:  52; 6HR MAX TEMP:  56;

PELLA *        CLEAR     56  50  80 NW9       30.03R
PERRY *          N/A     52  48  84 NW5       30.06R
$$

IAZ004>006-015-016-023>025-035-036-211300-
   NORTH CENTRAL IOWA

CITY           SKY/WX    TMP DP  RH WIND       PRES   REMARKS
ALGONA *       CLEAR     54  46  76 NW13G21   30.06R
CLARION *        N/A     52  48  87 NW10      30.03R
ESTHERVILLE    CLEAR     50  45  83 NW9       30.08R
6HR MIN TEMP:  50; 6HR MAX TEMP:  56;

FORT DODGE *   CLEAR     52  45  76 CALM      30.05R
MASON CITY     CLEAR     52  48  86 NW17      30.02R
6HR MIN TEMP:  51; 6HR MAX TEMP:  55;

FOREST CITY *  CLEAR     52  48  87 NW10      30.02R
IOWA FALLS *     N/A     54  46  76 NW14      30.02R
$$

IAZ007>011-017>019-026>030-037>042-050>054-066-211300-
   NORTHEAST IOWA

CITY           SKY/WX    TMP DP  RH WIND       PRES   REMARKS
CEDAR RAPIDS   CLEAR     53  51  93 W13       29.94R
6HR MIN TEMP:  53; 6HR MAX TEMP:  59;

CHARLES CITY * CLEAR     52  48  87 NW13G18   29.97R
CLINTON *      CLEAR     54  50  87 W9        29.91R
DECORAH *      PTCLDY    52  50  93 NW8G15    29.91R
DUBUQUE        CLEAR     53  50  89 W14       29.89R
6HR MIN TEMP:  53; 6HR MAX TEMP:  57;

MONTICELLO *   CLEAR     54  52  94 W10       29.91R
OELWEIN *      PTCLDY    52  50  93 NW13      29.95R
WATERLOO       CLEAR     54  48  80 NW12      29.96R
6HR MIN TEMP:  53; 6HR MAX TEMP:  56;

$$

IAZ064-065-067-068-078-211300-
   EAST CENTRAL IOWA

CITY           SKY/WX    TMP DP  RH WIND       PRES   REMARKS
DAVENPORT      CLEAR     54  50  86 W13       29.92R
6HR MIN TEMP:  53; 6HR MAX TEMP:  63;

IOWA CITY        N/A     54  51  90 W10       29.96R
6HR MIN TEMP:  54; 6HR MAX TEMP:  62;

MT. PLEASANT * CLEAR     56  52  89 W9        29.98R
MUSCATINE *    CLEAR     57  52  82 NW13      29.95R
QUAD CITIES    CLEAR     58  51  78 W13G21    29.91R
6HR MIN TEMP:  55; 6HR MAX TEMP:  66;

$$

IAZ062-063-075>077-085>089-095>099-211300-
   SOUTHEAST IOWA

CITY           SKY/WX    TMP DP  RH WIND       PRES   REMARKS
BURLINGTON     CLEAR     56  53  90 W9        29.97R
6HR MIN TEMP:  55; 6HR MAX TEMP:  69;

FAIRFIELD *    CLEAR     55  50  82 W10       29.98S
FORT MADISON * CLEAR     57  54  88 W7        29.99R
KEOKUK *       CLEAR     54  52  94 W8        29.98R
OSKALOOSA *      N/A     53  51  92 W8        30.01R
CENTERVILLE *  CLEAR     54  50  87 W8        30.05R
OTTUMWA        CLEAR     54  50  86 W10       30.00R
6HR MIN TEMP:  53; 6HR MAX TEMP:  62;

WASHINGTON *   CLEAR     54  54 100 W10       29.97R
$$

ABBREVIATIONS USED IN REMARKS
   TC - TEMPERATURES IN CELSIUS
  WCI - WIND CHILL INDEX
   HX - HEAT INDEX
  VSB - VISIBILITY
$$



USA.gov is the U.S. government's official web portal to all federal, state and local government web resources and services.